Flag for Switzerland Weather past 2 weeks in Zürich, Zurich, Switzerland

Now
57 °F

Cool.


Feels Like: 56 °F
Forecast: 46 / 74 °F
Wind: 5 mph from Northeast

Location: Zurich Town / Ville.

Current Time: Sep 3, 2014 at 9:55:03 AM

Latest Report: Sep 3, 2014 at 9:00 AM


Visibility: N/A

Pressure: 30.05 "Hg

Humidity: 85%

Dew point: 52 °F

Location of ZürichLocation

Historic Weather in Zürich — Graph

°F

Zürich temperature yesterday

Maximum temperature yesterday: 64 °F (at 5:00 PM)
Minimum temperature yesterday: 49 °F (at 4:00 AM)
Average temperature yesterday: 56 °F

Past Weeks' High & Low Weather Summary

 TemperatureHumidityPressure
High74 °F (Aug 28, 5:00 PM)98% (Aug 19, 8:00 AM)30.20 "Hg (Aug 19, 8:00 AM)
Low49 °F (Sep 2, 4:00 AM)42% (Aug 21, 4:00 PM)29.77 "Hg (Aug 26, 7:00 PM)
Average59 °F78%30.03 "Hg
* Reported Aug 19 8:00 AM — Sep 3 8:00 AM, Zürich, Weather by CustomWeather, © 2014

Note: Actual official high and low records may vary slightly from our data, if they occured in-between our weather recording intervals... More about our weather records

Advertising

Zürich weather history for previous 24 hours

 ConditionsComfort  
Time TempWeatherWind HumidityBarometerVisibility
8:00 AM
Sep 3
55 °FOvercast.3 mph91%30.06 "HgN/A
7:00 AM54 °FCool.2 mph93%30.06 "HgN/A
6:00 AM54 °FCool.7 mph92%30.07 "HgN/A
5:00 AM54 °FCool.6 mph91%30.08 "HgN/A
4:00 AM54 °FCool.5 mph91%30.09 "HgN/A
3:00 AM54 °FCool.2 mph91%30.10 "HgN/A
2:00 AM53 °FCool.5 mph91%30.11 "HgN/A
1:00 AM54 °FCool.6 mph88%30.13 "HgN/A
12:00 AM55 °FCool.5 mph85%30.14 "HgN/A
11:00 PM
Sep 2
55 °FCool.5 mph85%30.14 "HgN/A
10:00 PM56 °FCool.3 mph80%30.15 "HgN/A
9:00 PM59 °FCool.2 mph72%30.13 "HgN/A
8:00 PM59 °FOvercast.2 mph68%30.11 "HgN/A
7:00 PM61 °FCool.5 mph64%30.10 "HgN/A
6:00 PM62 °FMild.5 mph56%30.08 "HgN/A
5:00 PM64 °FMild.6 mph52%30.08 "HgN/A
4:00 PM64 °FMild.5 mph53%30.09 "HgN/A
3:00 PM63 °FMild.6 mph54%30.10 "HgN/A
2:00 PM64 °FOvercast.7 mph59%30.10 "HgN/A
1:00 PM61 °FCool.6 mph66%30.11 "HgN/A
12:00 PM60 °FCool.7 mph69%30.11 "HgN/A
11:00 AM58 °FCool.5 mph83%30.13 "HgN/A
10:00 AM55 °FCool.5 mph82%30.14 "HgN/A
9:00 AM53 °FCool.1 mph91%30.15 "HgN/A
Weather by CustomWeather, © 2014

See weather overviewHow to use our weather pages